Kayseri, Turkey

12:11 PM +03 on May 25, 2017 (GMT +0300)
Erkilet Air Base

Weather History for LTAU - September, 2013

Change the Weather History Date:

Monday, September 16, 2013

  Actual Average Record
Temperature  
Mean Temperature 57 °F -  
Max Temperature 78 °F 71 °F 89 °F (2008)
Min Temperature 36 °F 42 °F 35 °F (2004)
Degree Days  
Heating Degree Days 8    
Growing Degree Days 7 (Base 50)    
Moisture  
Dew Point 27 °F    
Average Humidity 33    
Maximum Humidity 70    
Minimum Humidity 6    
Precipitation  
Precipitation 0.00 in - - ()
Sea Level Pressure  
Sea Level Pressure 29.93 in    
Wind  
Wind Speed 2 mph ()    
Max Wind Speed 9 mph    
Max Gust Speed -    
Visibility 9.1 miles    
Events      
Averages and records for this station are not official NWS values.
T = Trace of Precipitation, MM = Missing Value Source: Averaged Metar Reports

Daily Weather History Graph

Daily Weather History Graph

Search for Another Location

Airport or City:

Trip Planner

Search our weather history database for the weather conditions in past years. The results will help you decide how hot, cold, wet, or windy it might be!

Date:

Astronomy

Sep. 16, 2013 Rise Set
Actual Time 6:20 AM EEST 6:45 PM EEST
Civil Twilight 5:53 AM EEST 7:11 PM EEST
Nautical Twilight 5:22 AM EEST 7:43 PM EEST
Astronomical Twilight 4:50 AM EEST 8:14 PM EEST
Moon 4:38 PM EEST (9/16) 2:44 AM EEST (9/16)
Length of Visible Light 13h 17m
Length of Day
12h 24m
Waxing Gibbous, 88% of the Moon is Illuminated
Sep 16
Waxing Gibbous
Sep 19
Full
Sep 27
Last Quarter
Oct 5
New
Oct 12
First Quarter

Hourly Weather History & Observations

Time (EEST) Temp. Windchill Dew Point Humidity Pressure Visibility Wind Dir Wind Speed Gust Speed Precip Events Conditions
12:20 AM 53.6 °F - 24.8 °F 33% 29.98 in - Variable 2.3 mph - N/A   Clear
12:50 AM 51.8 °F - 24.8 °F 35% 29.98 in - Calm Calm - N/A   Clear
1:20 AM 51.8 °F - 23.0 °F 33% 29.98 in - WSW 6.9 mph - N/A   Clear
1:50 AM 50.0 °F - 24.8 °F 37% 29.98 in - West 3.5 mph - N/A   Clear
2:20 AM 46.4 °F - 28.4 °F 50% 29.98 in - Calm Calm - N/A   Clear
2:50 AM 44.6 °F - 28.4 °F 53% 29.98 in - Calm Calm - N/A   Clear
3:20 AM 44.6 °F 42.2 °F 28.4 °F 53% 29.98 in - NE 4.6 mph - N/A   Clear
3:50 AM 44.6 °F - 28.4 °F 53% 29.98 in - Variable 1.2 mph - N/A   Clear
4:20 AM 39.2 °F - 26.6 °F 61% 29.98 in - NNE 1.2 mph - N/A   Clear
4:50 AM 41.0 °F - 28.4 °F 61% 29.98 in - Calm Calm - N/A   Clear
5:20 AM 39.2 °F 37.0 °F 30.2 °F 70% 29.98 in - NE 3.5 mph - N/A   Clear
5:50 AM 39.2 °F 35.9 °F 28.4 °F 65% 30.01 in - NE 4.6 mph - N/A   Clear
6:20 AM 37.4 °F 34.9 °F 28.4 °F 70% 30.01 in - NE 3.5 mph - N/A   Clear
6:50 AM 37.4 °F 33.8 °F 28.4 °F 70% 30.01 in - NNE 4.6 mph - N/A   Clear
7:20 AM 42.8 °F 40.1 °F 28.4 °F 57% 30.01 in - NE 4.6 mph - N/A   Clear
7:50 AM 50.0 °F - 28.4 °F 43% 30.01 in - NNE 3.5 mph - N/A   Clear
8:20 AM 53.6 °F - 28.4 °F 38% 30.01 in - North 3.5 mph - N/A   Clear
8:50 AM 57.2 °F - 28.4 °F 33% 30.01 in - NE 3.5 mph - N/A   Clear
9:00 AM 57 °F - 28 °F 22%  in 12 mi NE 3.5 mph - -  
9:20 AM 60.8 °F - 28.4 °F 29% 30.01 in - Variable 1.2 mph - N/A   Clear
9:50 AM 62.6 °F - 28.4 °F 27% 30.01 in - Calm Calm - N/A   Clear
10:20 AM 66.2 °F - 28.4 °F 24% 29.98 in - Calm Calm - N/A   Clear
10:50 AM 68.0 °F - 26.6 °F 21% 29.98 in - Variable 1.2 mph - N/A   Clear
11:20 AM 68.0 °F - 28.4 °F 23% 29.98 in - Variable 2.3 mph - N/A   Clear
11:50 AM 69.8 °F - 26.6 °F 20% 29.98 in - Variable 2.3 mph - N/A   Clear
12:20 PM 73.4 °F - 24.8 °F 16% 29.95 in - Variable 2.3 mph - N/A   Clear
12:50 PM 73.4 °F - 24.8 °F 16% 29.98 in - SW 5.8 mph - N/A   Clear
1:20 PM 75.2 °F - 23.0 °F 14% 29.92 in - Variable 3.5 mph - N/A   Clear
1:50 PM 75.2 °F - 23.0 °F 14% 29.92 in - Variable 4.6 mph - N/A   Clear
2:20 PM 75.2 °F - 21.2 °F 13% 29.92 in - WSW 5.8 mph - N/A   Clear
2:50 PM 77.0 °F - 24.8 °F 14% 29.89 in - Variable 3.5 mph - N/A   Clear
3:00 PM 77 °F - 22 °F 6%  in 12 mi SSW 3.5 mph - -  
3:20 PM 77.0 °F - 23.0 °F 13% 29.89 in 6.2 mi West 9.2 mph - N/A   Partly Cloudy
3:50 PM 77.0 °F - 23.0 °F 13% 29.89 in 6.2 mi Variable 3.5 mph - N/A   Partly Cloudy
4:20 PM 78.8 °F - 23.0 °F 13% 29.86 in - Variable 2.3 mph - N/A   Clear
4:50 PM 77.0 °F - 23.0 °F 13% 29.86 in - Variable 1.2 mph - N/A   Clear
5:20 PM 77.0 °F - 24.8 °F 14% 29.86 in - WNW 4.6 mph - N/A   Clear
5:50 PM 77.0 °F - 24.8 °F 14% 29.86 in - Variable 1.2 mph - N/A   Clear
6:20 PM 71.6 °F - 28.4 °F 20% 29.86 in - Variable 1.2 mph - N/A   Clear
6:50 PM 69.8 °F - 26.6 °F 20% 29.86 in - Calm Calm - N/A   Clear
7:20 PM 64.4 °F - 30.2 °F 28% 29.86 in - Variable 1.2 mph - N/A   Clear
7:50 PM 57.2 °F - 33.8 °F 41% 29.86 in - Calm Calm - N/A   Clear
8:20 PM 57.2 °F - 32.0 °F 38% 29.86 in - SSE 1.2 mph - N/A   Clear
8:50 PM 57.2 °F - 32.0 °F 38% 29.86 in - Variable 2.3 mph - N/A   Clear
9:20 PM 57.2 °F - 30.2 °F 36% 29.86 in - Calm Calm - N/A   Clear
9:50 PM 55.4 °F - 28.4 °F 36% 29.86 in - NNE 4.6 mph - N/A   Clear
10:20 PM 57.2 °F - 26.6 °F 31% 29.86 in - NE 6.9 mph - N/A   Clear
10:50 PM 55.4 °F - 28.4 °F 36% 29.86 in - Calm Calm - N/A   Clear
11:20 PM 53.6 °F - 26.6 °F 35% 29.86 in - NNE 4.6 mph - N/A   Clear
11:50 PM 51.8 °F - 28.4 °F 41% 29.83 in - NE 3.5 mph - N/A   Clear